Terminal Aerodrome Forecast
Issued by NWS Wilmington, OH

Current Version | Previous Version | Graphics & Text | Print | Product List | Glossary On
Versions: 1 2 3 4 5 6 7 8 9 10 11 12 13 14 15 16 17 18 19 20 21 22 23 24
000
FTUS41 KILN 270400 AAA
TAFCMH
TAF AMD
KCMH 270401Z 2704/2724 35005KT P6SM BKN035
     FM270600 34004KT P6SM OVC025
     FM271400 31012KT P6SM OVC025=

USA.gov is the U.S. government's official web portal to all federal, state and local government web resources and services.